Location: Forst
(46.9333°N, 15.4333°E)
Time: 00:28:12
(UTC+00:00)

X-37B - Pass Details

Date: 03 October 2021
Orbit: 385 x 389 km, 45.0° (Epoch: 13 October)

Event Time Altitude Azimuth Distance (km) Brightness Sun altitude
Exits shadow 03:57:24 15° 232° (SW) 1,131 2.4 -11.5°
Maximum altitude 03:58:22 17° 209° (SSW) 1,053 2.4 -11.3°
Drops below altitude 10° 04:00:34 10° 165° (SSE) 1,408 3.5 -10.9°
Sets 04:03:04 0° 145° (SE) 2,260 4.9 -10.5°
